Showing default

CHINASAT 9A, 42763

Orbit data source: Space-Track

CHINASAT 9A, 42763 is a payload satellite owned by China Satcom (CN) in GEO that was launched on Sun, 18 Jun 2017 UTC via a CHANG ZHENG 3B launch vehicle from the Xichang Space Center, China (XSC). Payload-class satellites include a variety of spacecraft equipped with specific instruments for various scientific and technological missions. These include communications satellites like Starlink; space stations such as the ISS; scientific satellites like the Hubble; Earth observation satellites from companies like Planet Labs, Umbra, and HawkEye 360; GPS; miniature CubeSats for education and research; and military/defense satellites.

Loading next visibility...
Identifier
42763, 2017-035A
Orbit
GEO
Country
Flag of CNCN / PRC
Related business
Manufacturer
CAST?
Mission
Non-operational Civil Communications
Bus & Motor
DFH-4?, DFH-4 LAE
Mass
~5,250 kg wet, ~2,500 kg dry
Launch date (UTC)
2017-06-18 (8 years ago)
Launch vehicle
CHANG ZHENG 3B
Launch site
Xichang Space Center, China (XSC)
Object type
Payload
Rocket body
Debris
Shape & HBR
Box + 2 Pan, 15.0 m
Radar Cross Section
34.063 m², Large (>1 m²)

Expand to show TLE details & history
Last TLE update: 21 hours ago

TLE from 21 hours ago
0 CHINASAT 9A
1 42763U 17035A   25347.89643198 -.00000011  00000-0  00000-0 0  9990
2 42763   4.5094  77.5454 0004196 232.5364 351.5313  0.99778762 31801
Epoch: 2025-12-13T21:30Z
TLE epoch observation values (Epoch: 2025-12-13T21:30:51.723Z)
Latitude
-3.15085°
Longitude
-104.01697°
Altitude
35,907.801 km
Speed
3.071 km/s
True Right ascension
20h 06m 03s
True Declination
-3° 08' 52"
Sunlit
Object was in daylight at epoch
Visualization orbit readout
Latitude
Unknown
Longitude
Unknown
Altitude
Unknown
Speed
Unknown
Apparent Right ascension
Unknown
Apparent Declination
Unknown
Sunlit
N/A
Visualization observer readout
Local Sidereal Time
16:59:07
Azimuth
Unknown
Elevation
Unknown
Doppler factor
Unknown
Orbital elements
Apogee altitude
35,944.184 km
Perigee altitude
35,908.682 km
Semi-major axis
42,304.57 km
Eccentricity
0.00042
Inclination
4.5094°
RAAN
77.5454°
Arg. of periapsis
232.5364°
True anomaly
351.52422°
Mean anomaly
351.5313°
Eccentric anomaly
351.52776°
Mean motion
0.24944 °/min
Orbital period
1,443.25 mins
BSTAR
0
Loading maneuver chart data...
Computing Atmospheric mass density...
Loading historical data...
Loading historical data...
Loading historical data...
Loading historical data...
Loading historical data...
Loading historical data...
Loading historical data...
Other satellites on launch #35 in the year 2017 (2017-06-18 UTC)

Documentation

Showing up to 5 results
|